Location: Praha
(50.0830°N, 14.4670°E)
Time: 15:48:56
(UTC+01:00)

ISS - Pass Details

Date: 19 March 2023
Orbit: 414 x 423 km, 51.6° (Epoch: 21 March)

Event Time Altitude Azimuth Distance (km) Brightness Sun altitude
Rises 21:02:25 0° 267° (W) 2,355 0.8 -26.4°
Reaches altitude 10° 21:04:31 10° 270° (W) 1,491 -0.3 -26.6°
Enters shadow 21:05:42 20° 274° (W) 1,023 -1.2 -26.8°
